TimeCST,TemperatureF,Dew PointF,Humidity,Sea Level PressureIn,VisibilityMPH,Wind Direction,Wind SpeedMPH,Gust SpeedMPH,PrecipitationIn,Events,Conditions,WindDirDegrees,DateUTC
12:44 AM,35.6,26.6,70,30.35,10.0,North,8.1,-,N/A,,Scattered Clouds,10,2012-12-30 06:44:00
12:55 AM,35.6,26.4,69,30.35,10.0,North,9.2,-,N/A,,Scattered Clouds,10,2012-12-30 06:55:00
1:55 AM,34.3,24.3,67,30.38,10.0,North,9.2,-,N/A,,Clear,350,2012-12-30 07:55:00
2:55 AM,32.2,23.9,72,30.39,10.0,NNW,6.9,-,N/A,,Clear,340,2012-12-30 08:55:00
3:55 AM,30.4,23.9,77,30.38,10.0,NNW,6.9,-,N/A,,Clear,340,2012-12-30 09:55:00
4:55 AM,28.2,23.4,82,30.40,10.0,NNW,3.5,-,N/A,,Clear,340,2012-12-30 10:55:00
5:55 AM,28.4,23.5,82,30.43,10.0,NNW,8.1,-,N/A,,Clear,330,2012-12-30 11:55:00
6:55 AM,27.7,23.2,83,30.45,10.0,North,6.9,-,N/A,,Clear,350,2012-12-30 12:55:00
7:55 AM,31.1,24.3,76,30.47,10.0,North,9.2,-,N/A,,Clear,360,2012-12-30 13:55:00
8:55 AM,35.4,23.9,63,30.50,10.0,NNE,11.5,-,N/A,,Clear,30,2012-12-30 14:55:00
9:55 AM,39.2,24.3,55,30.49,10.0,North,11.5,-,N/A,,Clear,10,2012-12-30 15:55:00
10:55 AM,43.3,24.1,47,30.48,10.0,NNE,10.4,-,N/A,,Clear,20,2012-12-30 16:55:00
11:55 AM,46.9,24.4,41,30.45,10.0,North,10.4,-,N/A,,Clear,10,2012-12-30 17:55:00
12:55 PM,50.2,23.7,36,30.42,10.0,NNE,6.9,-,N/A,,Clear,30,2012-12-30 18:55:00
1:55 PM,52.9,24.6,33,30.38,10.0,NNE,10.4,-,N/A,,Clear,20,2012-12-30 19:55:00
2:55 PM,53.6,25.3,34,30.37,10.0,NNE,10.4,-,N/A,,Clear,20,2012-12-30 20:55:00
3:55 PM,52.5,25.2,35,30.37,10.0,NNE,10.4,-,N/A,,Clear,20,2012-12-30 21:55:00
4:55 PM,47.8,28.6,47,30.38,10.0,North,4.6,-,N/A,,Clear,10,2012-12-30 22:55:00
5:55 PM,39.9,31.5,72,30.38,10.0,Calm,Calm,-,N/A,,Clear,0,2012-12-30 23:55:00
6:55 PM,36.5,30.4,78,30.40,10.0,Calm,Calm,-,N/A,,Clear,0,2012-12-31 00:55:00
7:55 PM,34.9,29.7,81,30.41,10.0,Calm,Calm,-,N/A,,Clear,0,2012-12-31 01:55:00
8:55 PM,32.4,28.6,86,30.41,10.0,Calm,Calm,-,N/A,,Clear,0,2012-12-31 02:55:00
9:55 PM,30.2,27.3,89,30.42,10.0,Calm,Calm,-,N/A,,Clear,0,2012-12-31 03:55:00
10:55 PM,29.5,27.3,92,30.41,10.0,Calm,Calm,-,N/A,,Clear,0,2012-12-31 04:55:00
11:55 PM,29.3,26.6,90,30.39,10.0,Calm,Calm,-,N/A,,Scattered Clouds,0,2012-12-31 05:55:00